Hourly Weather Bolshie Ozerki

Today, 20 June, Sunday

Time Temperature Precipitation Wind Pressure Humidity
00:00 +17°C° 0 mm 2 mps 745 mmHg 90%
01:00 +17°C° 0 mm 2 mps 745 mmHg 90%
02:00 +16°C° 0 mm 1 mps 745 mmHg 90%
03:00 +17°C° 0 mm 2 mps 745 mmHg 89%
04:00 +17°C° 0 mm 2 mps 745 mmHg 88%
05:00 +18°C° 0 mm 2 mps 745 mmHg 87%
06:00 +19°C° 0 mm 2 mps 745 mmHg 81%
07:00 +21°C° 0 mm 2 mps 745 mmHg 76%
08:00 +23°C° 0 mm 2 mps 745 mmHg 70%
09:00 +24°C° 0 mm 3 mps 745 mmHg 66%
10:00 +25°C° 0 mm 3 mps 745 mmHg 63%
11:00 +26°C° 0 mm 3 mps 745 mmHg 59%
12:00 +26°C° 0 mm 3 mps 745 mmHg 58%
13:00 +27°C° 0 mm 3 mps 745 mmHg 57%
14:00 +27°C° 0 mm 3 mps 744 mmHg 56%
15:00 +27°C° 0 mm 3 mps 744 mmHg 61%
16:00 +26°C° 0 mm 2 mps 744 mmHg 65%
17:00 +26°C° 0 mm 2 mps 744 mmHg 70%
18:00 +24°C° 0 mm 2 mps 744 mmHg 74%
19:00 +23°C° 0 mm 2 mps 744 mmHg 79%
20:00 +20°C° 0 mm 2 mps 744 mmHg 84%
21:00 +19°C° 0 mm 2 mps 743 mmHg 85%
22:00 +19°C° 0 mm 2 mps 743 mmHg 85%
23:00 +18°C° 0 mm 2 mps 743 mmHg 85%

Tomorrow, 21 June, Monday

Time Temperature Precipitation Wind Pressure Humidity
00:00 +18°C° 0 mm 2 mps 743 mmHg 85%
01:00 +18°C° 0 mm 2 mps 743 mmHg 86%
02:00 +18°C° 0 mm 2 mps 743 mmHg 86%
03:00 +18°C° 0 mm 2 mps 743 mmHg 87%
04:00 +18°C° 0 mm 2 mps 743 mmHg 87%
05:00 +18°C° 0 mm 2 mps 743 mmHg 88%
06:00 +20°C° 0 mm 3 mps 743 mmHg 83%
07:00 +21°C° 0 mm 3 mps 744 mmHg 78%
08:00 +23°C° 0 mm 4 mps 744 mmHg 73%
09:00 +25°C° 0 mm 4 mps 744 mmHg 70%
10:00 +26°C° 0 mm 4 mps 743 mmHg 66%
11:00 +27°C° 0 mm 4 mps 743 mmHg 63%
12:00 +27°C° 0 mm 4 mps 743 mmHg 63%
13:00 +28°C° 0 mm 4 mps 743 mmHg 64%
14:00 +28°C° 0 mm 4 mps 743 mmHg 64%
15:00 +28°C° 0 mm 4 mps 743 mmHg 68%
16:00 +27°C° 0 mm 3 mps 743 mmHg 72%
17:00 +27°C° 0 mm 3 mps 743 mmHg 76%
18:00 +26°C° 0 mm 3 mps 743 mmHg 80%
19:00 +24°C° 0 mm 3 mps 743 mmHg 84%
20:00 +22°C° 0 mm 3 mps 743 mmHg 88%
21:00 +21°C° 0 mm 3 mps 743 mmHg 89%
22:00 +21°C° 0 mm 3 mps 743 mmHg 90%
23:00 +20°C° 0 mm 3 mps 742 mmHg 91%

Day after tomorrow, 22 June, Tuesday

Time Temperature Precipitation Wind Pressure Humidity
00:00 +20°C° 0 mm 3 mps 743 mmHg 91%
01:00 +19°C° 0 mm 3 mps 743 mmHg 91%
02:00 +19°C° 0 mm 3 mps 743 mmHg 92%
03:00 +19°C° 0 mm 3 mps 743 mmHg 91%
04:00 +20°C° 0 mm 3 mps 743 mmHg 90%
05:00 +20°C° 0 mm 3 mps 743 mmHg 89%
06:00 +22°C° 0 mm 3 mps 743 mmHg 83%
07:00 +23°C° 0 mm 4 mps 743 mmHg 77%
08:00 +26°C° 0 mm 4 mps 744 mmHg 72%
09:00 +27°C° 0 mm 5 mps 744 mmHg 68%
10:00 +28°C° 0 mm 5 mps 744 mmHg 64%
11:00 +29°C° 0 mm 5 mps 744 mmHg 60%
12:00 +30°C° 0 mm 5 mps 744 mmHg 60%
13:00 +30°C° 0 mm 5 mps 743 mmHg 60%
14:00 +30°C° 0 mm 4 mps 743 mmHg 59%
15:00 +30°C° 0 mm 4 mps 743 mmHg 63%
16:00 +29°C° 0 mm 4 mps 743 mmHg 67%
17:00 +29°C° 0 mm 3 mps 743 mmHg 71%
18:00 +27°C° 0 mm 3 mps 743 mmHg 76%
19:00 +26°C° 0 mm 3 mps 743 mmHg 81%
20:00 +24°C° 0 mm 3 mps 743 mmHg 85%
21:00 +22°C° 0 mm 3 mps 743 mmHg 86%
22:00 +22°C° 0 mm 3 mps 743 mmHg 87%
23:00 +21°C° 0 mm 3 mps 743 mmHg 88%

23 June, Wednesday

Time Temperature Precipitation Wind Pressure Humidity
00:00 +21°C° 0 mm 3 mps 743 mmHg 87%
01:00 +20°C° 0 mm 3 mps 743 mmHg 87%
02:00 +20°C° 0 mm 3 mps 743 mmHg 86%
03:00 +20°C° 0 mm 3 mps 743 mmHg 85%
04:00 +20°C° 0 mm 3 mps 743 mmHg 84%
05:00 +21°C° 0 mm 2 mps 743 mmHg 83%
06:00 +22°C° 0 mm 3 mps 744 mmHg 79%
07:00 +25°C° 0 mm 3 mps 744 mmHg 74%
08:00 +26°C° 0 mm 4 mps 744 mmHg 70%
09:00 +28°C° 0 mm 4 mps 744 mmHg 65%
10:00 +29°C° 0 mm 4 mps 744 mmHg 60%
11:00 +30°C° 0 mm 4 mps 744 mmHg 56%
12:00 +30°C° 0 mm 4 mps 744 mmHg 55%
13:00 +30°C° 0 mm 4 mps 744 mmHg 54%
14:00 +32°C° 0 mm 4 mps 744 mmHg 53%
15:00 +30°C° 0 mm 3 mps 744 mmHg 58%
16:00 +30°C° 0 mm 3 mps 743 mmHg 63%
17:00 +29°C° 0 mm 2 mps 743 mmHg 68%
18:00 +28°C° 0 mm 2 mps 743 mmHg 73%
19:00 +26°C° 0 mm 2 mps 743 mmHg 78%
20:00 +25°C° 0 mm 2 mps 743 mmHg 83%
21:00 +24°C° 0 mm 2 mps 743 mmHg 84%
22:00 +23°C° 0 mm 2 mps 743 mmHg 86%
23:00 +23°C° 0 mm 2 mps 743 mmHg 87%

24 June, Thursday

Time Temperature Precipitation Wind Pressure Humidity
00:00 +21°C° 0 mm 2 mps 743 mmHg 88%
01:00 +21°C° 0 mm 2 mps 743 mmHg 89%
02:00 +21°C° 0 mm 2 mps 743 mmHg 89%
03:00 +21°C° 0 mm 2 mps 743 mmHg 89%
04:00 +23°C° 0 mm 2 mps 743 mmHg 88%
05:00 +23°C° 0 mm 2 mps 743 mmHg 87%
06:00 +25°C° 0 mm 2 mps 743 mmHg 83%
07:00 +26°C° 0 mm 2 mps 743 mmHg 78%
08:00 +28°C° 0 mm 2 mps 743 mmHg 73%
09:00 +29°C° 0 mm 2 mps 743 mmHg 69%
10:00 +30°C° 0 mm 2 mps 743 mmHg 65%
11:00 +31°C° 0 mm 2 mps 743 mmHg 61%
12:00 +31°C° 0 mm 2 mps 743 mmHg 59%
13:00 +32°C° 0 mm 2 mps 743 mmHg 57%
14:00 +32°C° 0 mm 2 mps 743 mmHg 54%
15:00 +32°C° 0 mm 1 mps 743 mmHg 58%
16:00 +32°C° 0 mm 1 mps 743 mmHg 61%
17:00 +32°C° 0 mm 1 mps 743 mmHg 64%
18:00 +30°C° 0 mm 1 mps 742 mmHg 68%
19:00 +28°C° 0 mm 1 mps 742 mmHg 71%
20:00 +26°C° 0 mm 2 mps 742 mmHg 75%
21:00 +25°C° 0 mm 2 mps 742 mmHg 76%
22:00 +25°C° 0 mm 2 mps 742 mmHg 78%
23:00 +24°C° 0 mm 2 mps 741 mmHg 79%

25 June, Friday

Time Temperature Precipitation Wind Pressure Humidity
00:00 +24°C° 0 mm 1 mps 742 mmHg 80%
01:00 +23°C° 0 mm 1 mps 742 mmHg 82%
02:00 +23°C° 0 mm 1 mps 742 mmHg 84%
03:00 +23°C° 0 mm 1 mps 742 mmHg 83%
04:00 +24°C° 0 mm 1 mps 742 mmHg 83%
05:00 +24°C° 0 mm 1 mps 742 mmHg 83%
06:00 +26°C° 0 mm 1 mps 741 mmHg 78%
07:00 +27°C° 0 mm 1 mps 741 mmHg 73%
08:00 +29°C° 0 mm 1 mps 741 mmHg 68%
09:00 +30°C° 0 mm 2 mps 741 mmHg 64%
10:00 +31°C° 0 mm 2 mps 741 mmHg 60%
11:00 +33°C° 0 mm 3 mps 742 mmHg 57%
12:00 +31°C° 0.1 mm 3 mps 741 mmHg 58%
13:00 +31°C° 0.1 mm 3 mps 741 mmHg 59%
14:00 +32°C° 0.1 mm 4 mps 741 mmHg 60%
15:00 +30°C° 0.2 mm 3 mps 741 mmHg 62%
16:00 +30°C° 0.2 mm 2 mps 740 mmHg 65%
17:00 +30°C° 0.2 mm 2 mps 740 mmHg 67%
18:00 +28°C° 0 mm 2 mps 740 mmHg 70%
19:00 +26°C° 0 mm 2 mps 740 mmHg 74%
20:00 +25°C° 0 mm 2 mps 740 mmHg 77%
21:00 +24°C° 0 mm 2 mps 740 mmHg 79%
22:00 +23°C° 0 mm 2 mps 739 mmHg 80%
23:00 +21°C° 0 mm 2 mps 739 mmHg 82%
Show more